#timestamp,LO_Frequency,Hit 
1501696815.7,286047000.0,N
1501696835.5,286046998.8,N
1501696855.3,286047001.2,N
1501696875.2,286046998.8,N
1501696895.0,286046998.7,N
1501696895.9,286046998.7,N
1501696915.7,286046998.2,N
1501696935.6,286046998.1,N
1501696955.4,286046999.9,N
1501696975.2,286047002.3,N
1501696995.1,286047002.9,N
1501696996.0,286047002.9,N
1501697015.8,286047001.6,N
1501697035.6,286047004.3,N
1501697055.5,286047001.8,N
1501697075.3,286047004.2,N
1501697095.1,286047001.9,N
1501697115.9,286047002.4,N
1501697135.7,286047003.7,N
1501697155.5,286047004.0,N
1501697175.3,286047001.8,N
1501697195.2,286047003.6,N
1501697215.0,286047005.3,N
1501697215.9,286047005.3,N
1501697235.7,286047005.6,N
1501697255.6,286047003.2,N
1501697275.4,286047004.9,N
1501697295.2,286047004.9,N
1501697315.1,286047004.9,N
1501697316.0,286047004.9,N
1501697335.8,286047005.0,N
1501697355.6,286047006.9,N
1501697375.5,286047007.5,N
1501697395.3,286047009.1,N
1501697415.1,286047010.1,N
1501697435.8,286047009.8,N
1501697455.7,286047011.2,N
1501697475.5,286047011.7,N
1501697495.3,286047013.6,N
1501697515.2,286047013.8,N
1501697535.9,286047012.7,N
1501697555.7,286047015.3,N
1501697575.6,286047014.8,N
1501697595.4,286047014.8,N
1501697615.2,286047014.2,N
1501697635.1,286047014.5,N
1501697636.0,286047014.5,N
1501697655.8,286047017.2,N
1501697675.6,286047016.6,N
1501697695.5,286047014.5,N
1501697715.3,286047014.3,N
1501697735.1,286047012.6,N
1501697755.8,286047014.9,N
1501697775.7,286047012.9,N
1501697795.5,286047015.1,N
1501697815.3,286047015.3,N
1501697835.2,286047014.7,N
1501697855.9,286047014.7,N
1501697875.7,286047011.3,N
1501697895.6,286047011.1,N
1501697915.4,286047011.6,N
1501697935.2,286047011.0,N
1501697955.1,286047012.9,N
1501697956.0,286047012.9,N
1501697975.8,286047014.3,N
1501697995.6,286047016.6,N
1501698015.5,286047015.8,N
1501698035.3,286047017.5,N
1501698055.1,286047019.8,N
1501698075.8,286047021.4,N
1501698095.7,286047021.7,N
1501698115.5,286047021.9,N
1501698135.3,286047021.8,N
1501698155.2,286047021.3,N
1501698175.9,286047020.7,N
1501698195.7,286047021.8,N
1501698215.6,286047019.3,N
1501698235.4,286047017.5,N
1501698255.2,286047019.1,N
1501698275.1,286047021.7,N
1501698276.0,286047021.7,N
1501698295.8,286047022.0,N
1501698315.6,286047019.0,N
1501698335.4,286047019.5,N
1501698355.3,286047019.6,N
1501698375.1,286047020.2,N
1501698395.8,286047020.1,N
1501698415.7,286047018.4,N
1501698435.5,286047019.3,N
1501698455.3,286047017.9,N
1501698475.2,286047016.4,N
1501698495.9,286047017.0,N
1501698515.7,286047015.9,N
1501698535.6,286047018.1,N
1501698555.4,286047017.6,N
1501698575.2,286047018.9,N
1501698595.1,286047020.7,N
1501698596.0,286047020.7,N
1501698615.8,286047022.7,N
1501698635.6,286047025.1,N
1501698655.4,286047022.6,N
1501698675.3,286047024.7,N
1501698695.1,286047022.4,N
1501698715.8,286047024.6,N
1501698735.7,286047023.0,N
1501698755.5,286047024.2,N
1501698775.3,286047024.8,N
1501698795.2,286047026.7,N
1501698815.9,286047024.1,N
1501698835.7,286047025.3,N
1501698855.6,286047026.7,N
1501698875.4,286047024.5,N
1501698895.2,286047022.3,N
1501698915.0,286047023.0,N
1501698916.0,286047023.0,N
1501698935.8,286047021.4,N
1501698955.6,286047021.6,N
1501698975.4,286047023.4,N
1501698995.3,286047025.1,N
1501699015.1,286047025.0,N
1501699035.8,286047023.7,N
1501699055.7,286047025.5,N
1501699075.5,286047025.4,N
1501699095.3,286047026.5,N
1501699115.2,286047022.2,N
1501699135.9,286047024.9,N
1501699155.7,286047022.5,N
1501699175.6,286047022.7,N
1501699195.4,286047022.1,N
1501699215.2,286047022.7,N
1501699235.0,286047022.3,N
1501699235.9,286047022.3,N
1501699255.8,286047022.3,N
1501699275.6,286047025.1,N
1501699295.4,286047025.9,N
1501699315.3,286047027.6,N
1501699335.1,286047029.9,N
1501699355.8,286047031.9,N
1501699375.7,286047038.0,N
1501699395.5,286047038.2,N
1501699415.3,286047041.6,N
1501699435.2,286047042.1,N
1501699455.9,286047039.1,N
1501699475.7,286047035.1,N
1501699495.5,286047035.4,N
1501699515.4,286047034.3,N
1501699535.2,286047030.3,N
1501699555.0,286047029.1,N
1501699555.9,286047029.1,N
1501699575.8,286047031.5,N
1501699595.6,286047030.0,N
1501699615.4,286047027.4,N
1501699635.3,286047028.7,N
1501699655.1,286047031.2,N
1501699656.0,286047031.2,N
1501699675.8,286047030.8,N
1501699695.7,286047031.8,N
1501699715.5,286047037.1,N
1501699735.3,286047042.7,N
1501699755.2,286047044.3,N
1501699775.9,286047043.4,N
1501699795.7,286047043.3,N
1501699815.5,286047041.6,N
1501699835.4,286047042.8,N
1501699855.2,286047039.2,N
1501699875.0,286047039.0,N
1501699875.9,286047039.0,N
1501699895.8,286047039.0,N
1501699915.6,286047040.4,N
1501699935.4,286047044.2,N
1501699955.3,286047045.5,N
1501699975.1,286047043.0,N
1501699976.0,286047043.0,N
1501699995.8,286047044.4,N
1501700015.7,286047042.2,N
1501700035.5,286047041.5,N
1501700055.3,286047042.4,N
1501700075.1,286047042.8,N
1501700095.9,286047040.0,N
1501700115.7,286047042.1,N
1501700135.5,286047042.3,N
1501700155.4,286047041.4,N
1501700175.2,286047041.5,N
1501700195.0,286047044.1,N
1501700195.9,286047044.1,N
1501700215.8,286047043.3,N
1501700235.6,286047044.1,N
1501700255.4,286047043.1,N
1501700275.3,286047045.4,N
1501700295.1,286047045.0,N
1501700296.0,286047045.0,N
1501700315.8,286047046.6,N
1501700335.6,286047049.0,N
1501700355.5,286047050.8,N
1501700375.3,286047048.1,N
1501700395.1,286047052.4,N
